User: anonymous   Login
Location: ?????
(55.8833°N, 37.6500°E)
Time: 07:01:59
(UTC+00:00)
Language:

Cosmos 1515 - Orbit

View from above orbital plane
View from above orbital plane
View from above satellite
View from above satellite

Ground track
Ground track

The orbit data is extracted from the following two-line orbital elements,

1 14551U 83122A   20157.55844875 +.00000602 +00000-0 +27812-4 0  9995
2 14551 082.4986 180.8018 0008567 119.7630 356.1724 15.18210430734034
Epoch (UTC): 05 June 2020 13:24:09
Eccentricity: 0.0008567
inclination: 82.4986°
perigee height: 505 km
apogee height: 517 km
right ascension of ascending node: 180.8018°
argument of perigee: 119.7630°
revolutions per day: 15.18210430
mean anomaly at epoch: 356.1724°
orbit number at epoch: 73403

The dashed part of the orbit path shows where the satellite is in the earth's shadow,  

DLR